Torna al catalogo

STARLINK-11499

AttivoComunicazioniVLEO
NORAD 62279·PAYLOAD·🇺🇸 United States

Lanciato Dec 8, 2024 da Cape Canaveral Space Force Station

Loading…

Prossimi Passaggi (prossime 24 ore)

TLE

AggiornatoSource: CelesTrak SupGP

Epoca: Sep 15, 2026, 03:50 UTC

1 62279C 24237N   26258.16020833 -.00015785  00000+0 -12263-3 0  2582
2 62279  43.0005 355.1876 0001655 266.7562 100.4382 15.70840855    18

Traccia STARLINK-11499 in tempo reale con AllMySat

Download on the App Store